Terminal Aerodrome Forecast
Issued by NWS Pendleton, OR

Current Version | Previous Version | Text Only | Print | Product List | Glossary On
Versions: 1 2 3 4 5 6 7 8 9 10 11 12 13 14 15 16 17 18 19 20 21 22
954
FTUS46 KPDT 140204 AAA
TAFPDT
TAF AMD
KPDT 140204Z 1402/1424 24010KT P6SM -SHRA OVC040
     FM140900 22010KT 6SM -RA BKN025 OVC040
     FM141800 25013G20KT 6SM -RA BKN025 OVC040=

USA.gov is the U.S. government's official web portal to all federal, state and local government web resources and services.